Overview Statistics Trail Chart Weather Telemetry Raw packets
 

This is the latest recevied weather packets stored in our database for station/object K0CPM-2. If no packets are shown the sender has not sent any weather packets the latest 10 day(s).

<< 30 31 32 33 34 35 36 >>
Time Temp. Humidity Pressure Rain* Wind** Luminosity Snow
1787859904 30.56° C 74% 1011.9 hPa 0 mm - - -
1787859005 30° C 72% 1012.2 hPa 0 mm - - -
1787858104 30° C 72% 1012.3 hPa 0 mm - - -
1787857203 30.56° C 69% 1012.1 hPa 0 mm - - -
1787856302 30.56° C 71% 1012.1 hPa 0 mm - - -
1787855401 30° C 69% 1011.9 hPa 0 mm - - -
1787854568 30° C 69% 1011.8 hPa 0 mm - - -
1787853665 30.56° C 65% 1011.8 hPa 0 mm - - -
1787852768 31.11° C 68% 1011.4 hPa 0 mm - - -
1787851860 30.56° C 78% 1011.1 hPa 0 mm - - -
1787850958 29.44° C 85% 1011.1 hPa 0 mm - - -
1787850049 27.78° C 92% 1011.1 hPa 0 mm - - -
1787849156 26.67° C 96% 1011.4 hPa 0 mm - - -
1787848259 26.11° C 97% 1012 hPa 0 mm - - -
1787847347 25° C 97% 1012.3 hPa 0 mm - - -
1787846449 24.44° C 97% 1012.6 hPa 0 mm - - -
1787845607 24.44° C 98% 1012.7 hPa 0.25 mm - - -
1787844647 23.89° C 97% 1012.9 hPa 0.51 mm - - -
1787843746 24.44° C 98% 1013.2 hPa 0.51 mm - - -
1787842845 23.89° C 98% 1013.3 hPa 1.27 mm - - -
1787841944 23.33° C 98% 1013.2 hPa 4.83 mm - - -
1787841052 23.33° C 97% 1013.4 hPa 6.35 mm - - -
1787840152 23.33° C 97% 1013.7 hPa 7.62 mm - - -
1787839259 23.33° C 97% 1013.8 hPa 8.64 mm - - -
1787838348 23.33° C 97% 1014.2 hPa 5.84 mm - - -

* Rain latest hour (hover to see other rain measurements)
** Current wind speed in m/s (hover to see current wind gust speed)